Overview Statistics Trail Chart Weather Telemetry Raw packets
 

This is the latest recevied weather packets stored in our database for station/object IT9DBI-3. If no packets are shown the sender has not sent any weather packets the latest 10 day(s).

<< 19 20 21 22 23 24 25 >>
Time Temp. Humidity Pressure Rain* Wind** Luminosity Snow
1787989126 35.56° C 45% 1015.1 hPa - - - -
1787987924 35° C 50% 1015 hPa - - - -
1787986723 34.44° C 48% 1015 hPa - - - -
1787985522 33.89° C 52% 1015.1 hPa - - - -
1787984321 33.33° C 52% 1015.1 hPa - - - -
1787983119 31.67° C 56% 1015.1 hPa - - - -
1787981918 31.11° C 60% 1014.9 hPa - - - -
1787980717 30.56° C 65% 1015 hPa - - - -
1787979515 30.56° C 69% 1015.1 hPa - - - -
1787978314 30.56° C 73% 1015.1 hPa - - - -
1787977113 31.67° C 68% 1014.9 hPa - - - -
1787975911 31.67° C 71% 1014.9 hPa - - - -
1787974710 32.78° C 69% 1014.9 hPa - - - -
1787973509 32.78° C 69% 1014.9 hPa - - - -
1787972308 32.22° C 73% 1015 hPa - - - -
1787971107 31.67° C 76% 1014.8 hPa - - - -
1787969905 32.22° C 72% 1014.8 hPa - - - -
1787968704 32.22° C 72% 1014.6 hPa - - - -
1787967503 32.78° C 69% 1014.7 hPa - - - -
1787966301 32.22° C 67% 1014.6 hPa - - - -
1787965100 32.78° C 45% 1014.4 hPa - - - -
1787963899 33.89° C 30% 1013.5 hPa - - - -
1787962697 34.44° C 24% 1013.3 hPa - - - -
1787961496 32.22° C 28% 1013 hPa - - - -
1787960295 32.22° C 28% 1013.1 hPa - - - -

* Rain since midnight (hover to see other rain measurements)
** Current wind speed in m/s (hover to see current wind gust speed)